GW0525 Weather Reports


Display with metric or nautical units.
time (UTC)temp
F
wind
direction
speed
MPH
gust
MPH
rain 1hr
in
rain 24hr
in
rain mn
in
humidity
%
barometer
mb
20260906083103 65 42 2.0 6.0 0.00 0.00 0.00 93 1014.5
20260906081604 65 25 4.0 9.0 0.00 0.00 0.00 93 1014.4
20260906080105 65 46 6.0 8.0 0.00 0.00 0.00 93 1014.3
20260906074607 66 53 4.0 7.0 0.00 0.00 0.00 93 1014.7
20260906073105 65 75 4.0 8.0 0.00 0.00 0.00 91 1014.9
20260906071610 66 53 5.0 6.0 0.00 0.00 0.00 91 1015.1
20260906070111 66 36 3.0 5.0 0.00 0.00 0.00 91 1015.1
20260906064604 66 34 4.0 7.0 0.00 0.00 0.00 90 1015.1
20260906063104 67 30 2.0 10.0 0.00 0.00 0.00 89 1015.1
20260906061607 67 57 4.0 8.0 0.00 0.00 0.00 88 1015.1
20260906060111 66 37 0.0 5.0 0.00 0.00 0.00 88 1015.1
20260906054604 66 18 5.0 8.0 0.00 0.00 0.00 88 1015.1
20260906053104 66 342 3.0 5.0 0.00 0.00 0.00 87 1015.2
20260906051606 67 351 7.0 13.0 0.00 0.00 0.00 86 1015.2
20260906050133 68 32 12.0 14.0 0.00 0.00 0.00 84 1015.1
20260906044602 68 24 12.0 15.0 0.00 0.00 0.00 84 1015.2
20260906043121 69 41 12.0 15.0 0.00 0.00 0.00 82 1015.4
20260906041605 69 37 12.0 15.0 0.00 0.00 0.00 82 1015.4
20260906040121 69 34 11.0 13.0 0.00 0.00 0.00 81 1015.6
20260906034606 70 42 10.0 13.0 0.00 0.00 0.00 79 1015.7
20260906033108 70 35 9.0 13.0 0.00 0.00 0.00 78 1015.6
20260906031605 70 32 10.0 12.0 0.00 0.00 0.00 77 1015.6
20260906030135 71 36 9.0 13.0 0.00 0.00 0.00 76 1015.7
20260906024609 72 38 7.0 12.0 0.00 0.00 0.00 75 1015.7
20260906023126 73 40 10.0 16.0 0.00 0.00 0.00 73 1015.4
20260906021616 73 64 11.0 17.0 0.00 0.00 0.00 72 1015.2
20260906020107 74 29 15.0 20.0 0.00 0.00 0.00 70 1015.0
20260906014623 75 67 11.0 14.0 0.00 0.00 0.00 69 1014.9
20260906013104 77 46 13.0 19.0 0.00 0.00 0.00 66 1014.8
20260906011607 79 45 14.0 19.0 0.00 0.00 0.00 62 1014.5
20260906010109 80 345 10.0 15.0 0.00 0.00 0.00 59 1014.2
20260906004606 81 346 14.0 19.0 0.00 0.00 0.00 57 1014.0
20260906003110 82 21 13.0 19.0 0.00 0.00 0.00 56 1013.9
20260906001606 83 12 15.0 19.0 0.00 0.00 0.00 55 1013.9
20260906000109 83 346 14.0 20.0 0.00 0.00 0.00 54 1013.6
20260905234618 84 14 13.0 18.0 0.00 0.00 0.00 53 1013.6
20260905233106 84 15 10.0 18.0 0.00 0.00 0.00 52 1013.4
20260905231607 85 344 13.0 18.0 0.00 0.00 0.00 52 1013.5
20260905230110 85 13 15.0 20.0 0.00 0.00 0.00 51 1013.5
20260905224610 85 349 14.0 20.0 0.00 0.00 0.00 52 1013.4
20260905223107 85 43 18.0 25.0 0.00 0.00 0.00 51 1013.3
20260905221605 85 40 13.0 22.0 0.00 0.00 0.00 50 1013.3
20260905220108 85 36 14.0 19.0 0.00 0.00 0.00 51 1013.4
20260905214613 85 342 13.0 19.0 0.00 0.00 0.00 51 1013.6
20260905213117 85 311 11.0 22.0 0.00 0.00 0.00 50 1013.6
20260905211603 85 346 8.0 18.0 0.00 0.00 0.00 50 1013.6
20260905210109 85 331 8.0 15.0 0.00 0.00 0.00 50 1013.7
20260905204602 84 344 8.0 19.0 0.00 0.00 0.00 51 1013.6
20260905203105 84 351 6.0 13.0 0.00 0.00 0.00 51 1013.7
20260905201607 83 317 8.0 19.0 0.00 0.00 0.00 54 1013.8
20260905194603 83 336 5.0 16.0 0.00 0.00 0.00 54 1013.7
20260905193106 82 340 5.0 16.0 0.00 0.00 0.00 56 1013.7
20260905191615 82 26 10.0 16.0 0.00 0.00 0.00 57 1013.6
20260905190105 82 56 11.0 16.0 0.00 0.00 0.00 57 1013.8
20260905184623 81 67 9.0 19.0 0.00 0.00 0.00 59 1013.9
20260905183114 80 350 12.0 19.0 0.00 0.00 0.00 60 1014.0
20260905181623 80 27 10.0 14.0 0.00 0.00 0.00 62 1014.1
20260905180111 79 22 11.0 16.0 0.00 0.00 0.00 61 1014.1
20260905174617 79 25 13.0 21.0 0.00 0.00 0.00 63 1014.1
20260905173113 79 11 11.0 17.0 0.00 0.00 0.00 62 1013.9
20260905171605 77 63 9.0 16.0 0.00 0.00 0.00 66 1014.0
20260905170106 76 52 8.0 16.0 0.00 0.00 0.00 67 1014.3
20260905164605 76 89 2.0 12.0 0.00 0.00 0.00 69 1014.4
20260905163108 75 325 0.0 12.0 0.00 0.00 0.00 71 1014.3
20260905161608 74 44 7.0 11.0 0.00 0.00 0.00 72 1014.2
20260905160113 74 0 1.0 7.0 0.00 0.00 0.00 73 1014.0
20260905154607 72 0 2.0 12.0 0.00 0.00 0.00 75 1013.6
20260905153118 71 109 5.0 11.0 0.00 0.00 0.00 78 1013.1
20260905151609 71 77 8.0 14.0 0.00 0.00 0.00 78 1013.2
20260905150108 70 74 10.0 17.0 0.00 0.00 0.00 80 1013.0
20260905144611 68 59 11.0 14.0 0.00 0.00 0.00 82 1013.1
20260905143112 66 44 10.0 14.0 0.00 0.00 0.00 84 1013.2
20260905141615 65 32 10.0 16.0 0.00 0.00 0.00 86 1013.2
20260905140109 63 47 11.0 14.0 0.00 0.00 0.00 90 1013.0
20260905134613 61 26 10.0 16.0 0.00 0.00 0.00 93 1013.1
20260905133105 60 9 9.0 16.0 0.00 0.00 0.00 94 1012.6
20260905131608 59 30 14.0 19.0 0.00 0.00 0.00 94 1012.2
20260905130113 59 343 12.0 23.0 0.00 0.00 0.00 94 1012.1
20260905124609 60 341 19.0 25.0 0.00 0.00 0.00 93 1011.6
20260905123109 59 338 18.0 23.0 0.00 0.00 0.00 93 1011.4
20260905121605 59 347 17.0 20.0 0.00 0.00 0.00 92 1011.0
20260905120112 59 344 16.0 21.0 0.00 0.00 0.00 90 1011.0
20260905114637 58 34 6.0 14.0 0.00 0.00 0.00 89 1011.3
20260905113108 58 340 5.0 10.0 0.00 0.00 0.00 86 1011.3
20260905111605 59 350 10.0 15.0 0.00 0.00 0.00 83 1011.2
20260905110108 59 323 11.0 18.0 0.00 0.00 0.00 81 1010.8
20260905104608 59 338 13.0 17.0 0.00 0.00 0.00 78 1010.3
20260905103109 60 341 11.0 17.0 0.00 0.00 0.00 76 1010.3
20260905101608 61 306 11.0 15.0 0.00 0.00 0.00 76 1010.3
20260905100121 62 308 11.0 15.0 0.00 0.00 0.00 76 1009.9
20260905094625 63 315 8.0 11.0 0.00 0.00 0.00 76 1009.7
20260905093105 63 352 6.0 10.0 0.00 0.00 0.00 75 1009.6
20260905091616 65 314 7.0 10.0 0.00 0.00 0.00 69 1009.5
20260905090109 66 339 3.0 5.0 0.00 0.00 0.00 68 1009.4
20260905084607 66 333 3.0 5.0 0.00 0.00 0.00 67 1009.4